EST,Max TemperatureF,Mean TemperatureF,Min TemperatureF,Max Dew PointF,MeanDew PointF,Min DewpointF,Max Humidity, Mean Humidity, Min Humidity, Max Sea Level PressureIn, Mean Sea Level PressureIn, Min Sea Level PressureIn, Max VisibilityMiles, Mean VisibilityMiles, Min VisibilityMiles, Max Wind SpeedMPH, Mean Wind SpeedMPH, Max Gust SpeedMPH,PrecipitationIn, CloudCover, Events, WindDirDegrees
2010-12-1,65,49,32,63,47,18,100,70,39,30.06,29.71,29.52,10,7,0,24,10,36,1.69,6,Fog-Rain,213
2010-12-2,42,35,28,27,23,19,85,65,45,30.22,30.15,30.07,10,10,10,9,2,12,0.00,3,,201
2010-12-3,42,36,29,27,24,16,85,64,43,30.14,30.10,30.03,10,10,7,8,1,15,0.00,5,,285
2010-12-4,40,33,25,28,20,13,68,51,33,30.12,29.95,29.85,10,8,1,7,2,9,T,5,Snow,243
2010-12-5,39,34,29,26,17,10,85,62,38,29.96,29.88,29.84,10,10,10,15,7,26,0.00,5,,333
2010-12-6,36,32,27,15,9,5,53,43,32,29.91,29.84,29.79,10,10,10,15,9,26,0.00,3,,302
2010-12-7,35,29,22,6,5,4,46,38,29,30.01,29.87,29.77,10,10,10,14,8,24,0.00,0,,301
2010-12-8,37,28,19,9,7,5,57,43,29,30.23,30.10,30.00,10,10,10,14,3,17,0.00,0,,337
2010-12-9,37,26,15,14,11,10,80,56,32,30.38,30.31,30.22,10,10,10,7,2,10,0.00,1,,227
2010-12-10,42,33,23,18,16,14,68,51,33,30.36,30.29,30.24,10,10,10,14,3,17,0.00,4,,198
2010-12-11,45,34,22,32,21,16,89,63,37,30.25,30.15,29.94,10,9,1,6,0,6,0.04,4,Rain,120
2010-12-12,40,37,34,37,34,32,100,96,92,29.92,29.52,29.27,10,2,0,10,2,13,0.23,8,Fog-Rain,185
2010-12-13,37,29,21,27,10,1,70,53,35,29.67,29.48,29.28,10,10,10,17,8,36,T,4,,309
2010-12-14,29,23,16,2,-2,-7,45,33,21,29.97,29.85,29.67,10,10,10,18,9,25,0.00,1,,310
2010-12-15,38,26,14,2,-2,-7,53,34,15,29.99,29.96,29.92,10,10,10,12,3,18,0.00,0,,247
2010-12-16,25,22,19,19,15,2,91,64,36,29.95,29.84,29.73,10,5,0,9,1,9,0.24,7,Fog-Snow,13
2010-12-17,41,29,17,24,21,16,88,68,48,30.15,30.04,29.86,10,9,6,9,2,12,0.00,3,,172
2010-12-18,39,30,20,25,22,18,88,70,52,30.16,30.10,30.04,10,8,5,5,0,6,0.00,6,,150
2010-12-19,40,34,27,25,19,13,85,63,40,30.07,30.02,29.98,10,9,6,9,2,15,0.00,2,,8
2010-12-20,41,32,23,14,13,10,62,46,30,30.12,30.06,30.01,10,10,10,12,5,20,0.00,1,,329
2010-12-21,40,34,27,24,17,15,63,50,37,30.11,30.04,29.98,10,10,10,8,2,15,0.00,5,,263
2010-12-22,47,40,32,25,22,19,72,55,37,30.02,29.93,29.86,10,10,10,15,3,25,0.00,4,,345
2010-12-23,42,38,33,18,17,16,52,45,37,30.13,30.09,30.02,10,10,10,21,11,35,0.00,3,,328
2010-12-24,43,37,30,19,15,12,59,44,29,30.20,30.15,30.11,10,10,10,14,5,25,0.00,1,,326
2010-12-25,34,32,30,28,25,20,92,75,58,30.10,30.01,29.96,10,5,1,6,0,7,0.05,8,Snow,0
2010-12-26,33,30,27,27,22,15,92,73,54,29.93,29.77,29.64,10,7,1,18,7,35,0.01,8,Snow,353
2010-12-27,38,33,28,13,8,4,58,42,26,30.03,29.80,29.63,10,10,10,21,12,36,0.00,2,,318
2010-12-28,48,36,24,11,8,5,50,35,20,30.10,30.04,29.99,10,10,10,14,6,21,0.00,0,,238
2010-12-29,50,39,27,21,17,7,75,50,25,30.17,30.09,30.04,10,10,9,9,3,14,0.00,0,,275
2010-12-30,44,35,25,27,24,20,81,65,49,30.26,30.20,30.17,10,9,7,12,2,14,T,3,,188
2010-12-31,59,45,30,34,30,25,78,59,40,30.20,30.18,30.15,10,9,7,8,2,9,0.00,2,,189